EW6851 Weather Reports


Display with metric or nautical units.
time (UTC)temp
F
wind
direction
speed
MPH
gust
MPH
rain 1hr
in
rain 24hr
in
rain mn
in
humidity
%
barometer
mb
20260506051204 64 119 0.0 0.0 0.00 0.00 0.00 62 1013.3
20260506050701 64 119 0.0 0.0 0.00 0.00 0.00 61 1013.4
20260506050158 64 119 0.0 0.0 0.00 0.00 0.00 61 1013.3
20260506044702 64 119 0.0 0.0 0.00 0.00 0.00 61 1013.1
20260506044204 64 119 0.0 0.0 0.00 0.00 0.00 61 1013.1
20260506043658 64 119 0.0 0.0 0.00 0.00 0.00 60 1013.1
20260506043201 64 153 0.0 0.0 0.00 0.00 0.00 60 1013.0
20260506042658 64 116 0.0 0.0 0.00 0.00 0.00 59 1013.0
20260506042201 64 129 0.0 1.0 0.00 0.00 0.00 60 1013.0
20260506041701 64 129 0.0 0.0 0.00 0.00 0.00 60 1013.0
20260506041201 64 129 0.0 1.0 0.00 0.00 0.00 62 1013.0
20260506040704 64 129 0.0 0.0 0.00 0.00 0.00 62 1012.9
20260506040201 64 129 0.0 1.0 0.00 0.00 0.00 63 1012.8
20260506035658 64 129 0.0 3.0 0.00 0.00 0.00 64 1012.7
20260506035158 64 152 2.0 2.0 0.00 0.00 0.00 69 1012.6
20260506034658 65 64 0.0 2.0 0.00 0.00 0.00 70 1012.5
20260506034204 65 212 0.0 0.0 0.00 0.00 0.00 70 1012.7
20260506033659 65 212 0.0 0.0 0.00 0.00 0.00 78 1012.8
20260506033158 66 212 0.0 0.0 0.00 0.00 0.00 79 1012.8
20260506032701 66 212 0.0 2.0 0.00 0.00 0.00 79 1012.8
20260506032158 66 224 0.0 4.0 0.00 0.00 0.00 77 1012.9
20260506031701 67 231 2.0 5.0 0.00 0.00 0.00 76 1012.9
20260506031159 68 222 2.0 6.0 0.00 0.00 0.00 71 1012.8
20260506030658 68 286 2.0 2.0 0.00 0.00 0.00 64 1012.8
20260506030158 68 248 0.0 5.0 0.00 0.00 0.00 51 1012.7
20260506025658 68 205 1.0 8.0 0.00 0.00 0.00 46 1012.7
20260506025158 68 196 4.0 11.0 0.00 0.00 0.00 48 1012.7
20260506024704 68 225 10.0 10.0 0.00 0.00 0.00 57 1012.6
20260506024201 68 248 0.0 2.0 0.00 0.00 0.00 58 1012.6
20260506023704 68 281 2.0 3.0 0.00 0.00 0.00 54 1012.6
20260506023158 68 241 0.0 5.0 0.00 0.00 0.00 45 1012.6
20260506022701 68 271 1.0 5.0 0.00 0.00 0.00 45 1012.6
20260506022201 68 196 3.0 7.0 0.00 0.00 0.00 45 1012.6
20260506021707 68 277 3.0 5.0 0.00 0.00 0.00 46 1012.6
20260506021158 67 234 4.0 5.0 0.00 0.00 0.00 47 1012.6
20260506020704 68 204 2.0 3.0 0.00 0.00 0.00 48 1012.5
20260506020159 68 102 0.0 4.0 0.00 0.00 0.00 49 1012.6
20260506015656 68 191 0.0 0.0 0.00 0.00 0.00 51 1012.6
20260506015202 68 191 0.0 7.0 0.00 0.00 0.00 51 1012.5
20260506014705 68 229 0.0 4.0 0.00 0.00 0.00 57 1012.5
20260506014156 69 114 1.0 7.0 0.00 0.00 0.00 49 1012.8
20260506013702 69 234 2.0 6.0 0.00 0.00 0.00 45 1012.8
20260506013205 69 250 1.0 11.0 0.00 0.00 0.00 44 1013.0
20260506012657 68 239 5.0 5.0 0.00 0.00 0.00 46 1013.0
20260506012156 68 198 0.0 1.0 0.00 0.00 0.00 44 1013.0
20260506011656 69 46 0.0 2.0 0.00 0.00 0.00 45 1012.9
20260506011156 69 46 0.0 4.0 0.00 0.00 0.00 47 1013.0
20260506010702 69 50 3.0 3.0 0.00 0.00 0.00 49 1013.0
20260506010156 69 292 0.0 3.0 0.00 0.00 0.00 43 1013.1
20260506005700 70 225 3.0 10.0 0.00 0.00 0.00 39 1013.0
20260506005159 70 149 3.0 10.0 0.00 0.00 0.00 38 1012.9
20260506004659 69 137 7.0 9.0 0.00 0.00 0.00 39 1012.9
20260506004156 69 140 1.0 11.0 0.00 0.00 0.00 39 1013.1
20260506003659 70 187 3.0 10.0 0.00 0.00 0.00 42 1013.1
20260506003202 70 184 7.0 17.0 0.00 0.00 0.00 41 1013.1
20260506002656 69 169 9.0 11.0 0.00 0.00 0.00 43 1013.3
20260506002156 69 196 7.0 12.0 0.00 0.00 0.00 43 1013.3
20260506001657 69 154 3.0 9.0 0.00 0.00 0.00 44 1013.2
20260506001156 69 162 1.0 11.0 0.00 0.00 0.00 45 1013.1
20260506000702 69 141 5.0 19.0 0.00 0.00 0.00 44 1013.2
20260506000156 69 175 6.0 15.0 0.00 0.00 0.00 44 1013.2
20260505235702 69 169 3.0 10.0 0.00 0.00 0.00 46 1013.3
20260505235200 67 175 2.0 7.0 0.00 0.00 0.00 51 1013.4
20260505234656 67 210 5.0 5.0 0.00 0.00 0.00 60 1013.4
20260505234156 67 200 0.0 3.0 0.00 0.00 0.00 62 1013.4
20260505233659 67 139 0.0 1.0 0.00 0.00 0.00 63 1013.4
20260505233202 67 114 0.0 5.0 0.00 0.00 0.00 62 1013.4
20260505232700 67 180 0.0 0.0 0.00 0.00 0.00 63 1013.4
20260505232156 67 181 0.0 0.0 0.00 0.00 0.00 63 1013.4
20260505231659 67 181 0.0 3.0 0.00 0.00 0.00 62 1013.5
20260505231159 67 150 0.0 0.0 0.00 0.00 0.00 62 1013.5
20260505230702 67 150 0.0 2.0 0.00 0.00 0.00 63 1013.6
20260505230156 66 138 1.0 3.0 0.00 0.00 0.00 63 1013.6
20260505225702 66 148 0.0 4.0 0.00 0.00 0.00 64 1013.5
20260505225156 66 124 3.0 5.0 0.00 0.00 0.00 65 1013.5
20260505224700 67 165 2.0 6.0 0.00 0.00 0.00 66 1013.7
20260505224156 67 147 2.0 6.0 0.00 0.00 0.00 67 1013.8
20260505223659 67 124 1.0 5.0 0.00 0.00 0.00 68 1014.0
20260505223159 67 165 1.0 4.0 0.00 0.00 0.00 69 1014.0
20260505222656 66 140 0.0 0.0 0.00 0.00 0.00 69 1014.1
20260505222156 66 173 0.0 3.0 0.00 0.00 0.00 69 1014.2
20260505221700 66 161 0.0 4.0 0.00 0.00 0.00 70 1014.3
20260505221156 66 178 0.0 3.0 0.00 0.00 0.00 72 1014.4
20260505220656 66 165 2.0 5.0 0.00 0.00 0.00 72 1014.4
20260505220156 66 110 3.0 5.0 0.00 0.00 0.00 72 1014.4
20260505215659 66 173 0.0 2.0 0.00 0.00 0.00 74 1014.5
20260505215156 66 173 0.0 0.0 0.00 0.00 0.00 74 1014.6
20260505214656 66 173 0.0 4.0 0.00 0.00 0.00 74 1014.5
20260505214159 66 131 0.0 3.0 0.00 0.00 0.00 74 1014.7
20260505213656 66 122 1.0 2.0 0.00 0.00 0.00 74 1014.7
20260505213159 66 95 0.0 2.0 0.00 0.00 0.00 74 1014.8
20260505212659 66 95 0.0 2.0 0.00 0.00 0.00 74 1014.8
20260505212156 66 95 0.0 0.0 0.00 0.00 0.00 74 1014.8
20260505211656 66 95 0.0 1.0 0.00 0.00 0.00 75 1014.7
20260505211159 66 95 0.0 0.0 0.00 0.00 0.00 75 1014.8
20260505210656 66 95 0.0 1.0 0.00 0.00 0.00 75 1014.8
20260505210156 66 95 0.0 3.0 0.00 0.00 0.00 75 1014.7
20260505205656 66 95 3.0 3.0 0.00 0.00 0.00 75 1014.8
20260505205159 66 92 0.0 3.0 0.00 0.00 0.00 77 1014.9
20260505204659 66 355 0.0 2.0 0.00 0.00 0.00 78 1014.9
20260505204156 66 186 0.0 0.0 0.00 0.00 0.00 78 1015.0
20260505203656 66 186 0.0 0.0 0.00 0.00 0.00 78 1015.0
20260505203156 65 186 0.0 3.0 0.00 0.00 0.00 78 1015.0
20260505202703 65 155 2.0 4.0 0.00 0.00 0.00 77 1015.0
20260505202159 66 156 0.0 5.0 0.00 0.00 0.00 78 1015.0
20260505201656 66 143 0.0 4.0 0.00 0.00 0.00 78 1015.0
20260505201159 65 173 0.0 1.0 0.00 0.00 0.00 79 1015.1
20260505200656 65 117 0.0 0.0 0.00 0.00 0.00 79 1015.2
20260505200157 65 117 0.0 3.0 0.00 0.00 0.00 79 1015.4
20260505195659 65 166 0.0 0.0 0.00 0.00 0.00 79 1015.4
20260505195159 66 153 0.0 4.0 0.00 0.00 0.00 79 1015.4
20260505194700 66 190 1.0 4.0 0.00 0.00 0.00 79 1015.5
20260505194159 66 154 2.0 4.0 0.00 0.00 0.00 78 1015.5
20260505193659 67 202 0.0 0.0 0.00 0.00 0.00 78 1015.5
20260505193159 66 200 0.0 2.0 0.00 0.00 0.00 79 1015.6
20260505192700 66 200 0.0 0.0 0.00 0.00 0.00 79 1015.7
20260505192203 66 200 0.0 2.0 0.00 0.00 0.00 79 1015.7
20260505191703 67 200 2.0 3.0 0.00 0.00 0.00 78 1015.8
20260505191156 67 200 0.0 0.0 0.00 0.00 0.00 79 1015.7
20260505190656 67 200 0.0 0.0 0.00 0.00 0.00 79 1015.7
20260505190159 67 200 0.0 2.0 0.00 0.00 0.00 79 1015.7
20260505185656 67 200 3.0 3.0 0.00 0.00 0.00 78 1015.6
20260505185159 67 257 0.0 0.0 0.00 0.00 0.00 79 1015.6
20260505184656 67 257 0.0 0.0 0.00 0.00 0.00 79 1015.5
20260505184205 67 257 0.0 0.0 0.00 0.00 0.00 79 1015.5
20260505183656 67 257 0.0 0.0 0.00 0.00 0.00 79 1015.5
20260505183156 67 257 0.0 0.0 0.00 0.00 0.00 79 1015.5
20260505182659 67 257 0.0 0.0 0.00 0.00 0.00 78 1015.6
20260505182157 67 257 0.0 0.0 0.00 0.00 0.00 78 1015.6
20260505181657 67 254 0.0 1.0 0.00 0.00 0.00 78 1015.6
20260505181159 67 258 0.0 4.0 0.00 0.00 0.00 77 1015.7
20260505180659 67 243 1.0 4.0 0.00 0.00 0.00 77 1015.8
20260505180156 67 253 0.0 6.0 0.00 0.00 0.00 77 1015.8
20260505175659 67 242 3.0 4.0 0.00 0.00 0.00 77 1015.8
20260505175157 68 279 4.0 4.0 0.00 0.00 0.00 76 1015.8
20260505174656 68 279 1.0 4.0 0.00 0.00 0.00 76 1015.8
20260505174159 68 279 0.0 1.0 0.00 0.00 0.00 76 1015.7
20260505173700 68 279 1.0 4.0 0.00 0.00 0.00 76 1015.7
20260505173156 68 289 3.0 4.0 0.00 0.00 0.00 76 1015.7
20260505172657 68 296 1.0 4.0 0.00 0.00 0.00 75 1015.8
20260505172159 68 296 1.0 5.0 0.00 0.00 0.00 75 1015.9
20260505171656 68 307 4.0 6.0 0.00 0.00 0.00 74 1015.8
20260505171159 69 289 4.0 4.0 0.00 0.00 0.00 73 1015.8
20260505170702 69 246 0.0 6.0 0.00 0.00 0.00 71 1015.8
20260505170159 70 286 3.0 6.0 0.00 0.00 0.00 69 1015.8
20260505165702 70 292 1.0 4.0 0.00 0.00 0.00 67 1015.9
20260505165156 71 213 3.0 4.0 0.00 0.00 0.00 66 1015.8
20260505164656 71 285 0.0 4.0 0.00 0.00 0.00 65 1015.8
20260505164159 71 304 1.0 5.0 0.00 0.00 0.00 65 1015.9
20260505163659 71 240 1.0 4.0 0.00 0.00 0.00 65 1015.8
20260505163200 71 296 5.0 5.0 0.00 0.00 0.00 65 1015.8
20260505162657 71 263 0.0 6.0 0.00 0.00 0.00 64 1015.8
20260505162200 72 321 2.0 6.0 0.00 0.00 0.00 65 1015.8
20260505161703 71 296 0.0 3.0 0.00 0.00 0.00 66 1015.8
20260505161157 71 299 0.0 4.0 0.00 0.00 0.00 66 1015.8
20260505160703 71 257 1.0 4.0 0.00 0.00 0.00 66 1015.8
20260505160157 71 284 0.0 5.0 0.00 0.00 0.00 66 1015.8
20260505153157 72 355 4.0 7.0 0.00 0.00 0.00 64 1015.7
20260505152700 73 313 2.0 5.0 0.00 0.00 0.00 63 1015.7
20260505152200 73 306 1.0 8.0 0.00 0.00 0.00 61 1015.7
20260505151657 73 287 1.0 6.0 0.00 0.00 0.00 61 1015.7
20260505151157 73 279 6.0 6.0 0.00 0.00 0.00 61 1015.6
20260505150703 73 299 4.0 6.0 0.00 0.00 0.00 60 1015.7
20260505150200 73 284 4.0 6.0 0.00 0.00 0.00 61 1015.6
20260505140200 75 319 3.0 8.0 0.00 0.00 0.00 55 1015.9
20260505130203 74 273 6.0 8.0 0.00 0.00 0.00 51 1016.1
20260505124657 75 236 2.0 5.0 0.00 0.00 0.00 51 1016.1
20260505124200 75 325 3.0 8.0 0.00 0.00 0.00 51 1016.2
20260505123700 75 31 0.0 7.0 0.00 0.00 0.00 50 1016.2
20260505123157 76 311 1.0 7.0 0.00 0.00 0.00 51 1016.2
20260505122657 75 331 2.0 6.0 0.00 0.00 0.00 50 1016.3
20260505122157 75 254 0.0 8.0 0.00 0.00 0.00 50 1016.2
20260505121657 75 355 6.0 8.0 0.00 0.00 0.00 48 1016.2
20260505121200 75 264 5.0 9.0 0.00 0.00 0.00 47 1016.3
20260505120657 75 319 5.0 7.0 0.00 0.00 0.00 47 1016.2
20260505120157 76 296 5.0 8.0 0.00 0.00 0.00 46 1016.3
20260505115657 76 283 6.0 7.0 0.00 0.00 0.00 48 1016.3
20260505115157 76 330 0.0 4.0 0.00 0.00 0.00 48 1016.2
20260505114657 75 295 3.0 6.0 0.00 0.00 0.00 46 1016.2
20260505114157 75 269 4.0 6.0 0.00 0.00 0.00 48 1016.3
20260505113700 75 258 4.0 9.0 0.00 0.00 0.00 47 1016.2
20260505113203 75 300 4.0 7.0 0.00 0.00 0.00 47 1016.3
20260505112657 76 315 2.0 6.0 0.00 0.00 0.00 46 1016.4
20260505112203 76 297 6.0 7.0 0.00 0.00 0.00 45 1016.4
20260505111657 76 254 2.0 6.0 0.00 0.00 0.00 46 1016.4
20260505111200 76 304 2.0 7.0 0.00 0.00 0.00 48 1016.5
20260505110703 75 342 3.0 6.0 0.00 0.00 0.00 48 1016.5
20260505110158 75 316 2.0 7.0 0.00 0.00 0.00 47 1016.6
20260505102157 75 304 3.0 5.0 0.00 0.00 0.00 52 1016.7
20260505101657 74 279 2.0 4.0 0.00 0.00 0.00 49 1016.7
20260505101157 74 327 4.0 5.0 0.00 0.00 0.00 51 1016.9
20260505100700 74 5 1.0 5.0 0.00 0.00 0.00 51 1016.9
20260505100158 74 239 1.0 4.0 0.00 0.00 0.00 53 1017.0
20260505095703 73 329 4.0 5.0 0.00 0.00 0.00 53 1017.0
20260505095157 73 289 3.0 7.0 0.00 0.00 0.00 53 1017.0
20260505094657 73 285 1.0 6.0 0.00 0.00 0.00 53 1017.0
20260505094203 73 274 4.0 6.0 0.00 0.00 0.00 52 1017.1
20260505093700 73 321 5.0 5.0 0.00 0.00 0.00 53 1017.1
20260505093200 73 263 2.0 7.0 0.00 0.00 0.00 53 1017.1
20260505092657 73 294 6.0 6.0 0.00 0.00 0.00 54 1017.1
20260505092157 73 277 6.0 6.0 0.00 0.00 0.00 54 1017.1
20260505091657 72 270 1.0 6.0 0.00 0.00 0.00 54 1017.1
20260505091157 72 290 4.0 7.0 0.00 0.00 0.00 53 1017.1
20260505090657 72 324 0.0 5.0 0.00 0.00 0.00 54 1017.0
20260505090158 72 257 1.0 7.0 0.00 0.00 0.00 54 1017.0
20260505085658 73 294 6.0 7.0 0.00 0.00 0.00 54 1017.0
20260505085201 73 309 4.0 6.0 0.00 0.00 0.00 53 1017.0
20260505084657 72 285 4.0 7.0 0.00 0.00 0.00 54 1017.0
20260505084203 72 240 3.0 5.0 0.00 0.00 0.00 54 1017.0
20260505083700 71 304 1.0 5.0 0.00 0.00 0.00 55 1017.1
20260505083200 71 298 4.0 5.0 0.00 0.00 0.00 56 1017.1
20260505082657 71 281 3.0 5.0 0.00 0.00 0.00 57 1017.1
20260505082201 71 272 3.0 4.0 0.00 0.00 0.00 58 1017.1
20260505081700 71 336 0.0 5.0 0.00 0.00 0.00 58 1017.1
20260505081206 71 274 3.0 6.0 0.00 0.00 0.00 58 1017.0
20260505080657 71 261 3.0 4.0 0.00 0.00 0.00 59 1017.0
20260505080157 71 246 2.0 4.0 0.00 0.00 0.00 59 1016.9
20260505075657 71 297 0.0 2.0 0.00 0.00 0.00 60 1016.9
20260505075200 71 269 1.0 2.0 0.00 0.00 0.00 59 1016.9
20260505074657 71 15 1.0 3.0 0.00 0.00 0.00 59 1016.9
20260505074157 70 347 0.0 4.0 0.00 0.00 0.00 59 1016.9
20260505073657 70 312 1.0 4.0 0.00 0.00 0.00 58 1017.0
20260505073157 70 241 0.0 3.0 0.00 0.00 0.00 58 1017.0
20260505072657 70 321 0.0 2.0 0.00 0.00 0.00 58 1017.1
20260505072157 70 259 0.0 2.0 0.00 0.00 0.00 60 1017.1
20260505071700 69 9 1.0 3.0 0.00 0.00 0.00 60 1017.2
20260505071158 69 217 0.0 4.0 0.00 0.00 0.00 60 1017.2
20260505070657 69 269 0.0 0.0 0.00 0.00 0.00 62 1017.2
20260505070157 68 291 0.0 0.0 0.00 0.00 0.00 63 1017.2
20260505065657 68 293 0.0 3.0 0.00 0.00 0.00 64 1017.1
20260505065157 68 268 0.0 4.0 0.00 0.00 0.00 64 1017.2
20260505064700 68 283 0.0 5.0 0.00 0.00 0.00 65 1017.2
20260505064157 68 296 2.0 2.0 0.00 0.00 0.00 66 1017.2
20260505063657 68 296 0.0 3.0 0.00 0.00 0.00 66 1017.1
20260505063157 67 296 1.0 2.0 0.00 0.00 0.00 66 1017.2
20260505062657 68 250 0.0 3.0 0.00 0.00 0.00 67 1017.2
20260505062157 67 250 1.0 0.0 0.00 0.00 0.00 70 1017.1
20260505061657 66 250 0.0 2.0 0.00 0.00 0.00 72 1017.2
20260505061157 66 157 0.0 3.0 0.00 0.00 0.00 73 1017.2
20260505060700 66 157 0.0 0.0 0.00 0.00 0.00 72 1017.2
20260505060157 65 157 0.0 1.0 0.00 0.00 0.00 71 1017.2
20260505055700 65 157 0.0 1.0 0.00 0.00 0.00 71 1017.2